Simultaneous Nadir Overpasses (SNOs) Predictions

Prediction of SNOs between NPP and TERRA Satellite Orbit:

Table of predicted SNOs for the next 14.0 days since TLE Epoch: 8/26/2022
Index Date (NPP) Time (NPP) Lat,Lon (NPP) SZA (NPP ) Date (TERRA) Time (TERRA) Lat,Lon (TERRA) SZA (TERRA ) Distance(km) Time Diff (sec)
1 08/28/2022 09:05:27 69.86, 40.37 60.15 08/28/2022 09:05:53 69.88, 40.42 60.16 2.77 26
2 08/28/2022 09:56:08 -69.72,-152.10 119.99 08/28/2022 09:55:24 -69.72,-152.17 119.99 2.74 44
3 08/31/2022 00:31:40 -70.00, -11.37 118.78 08/31/2022 00:32:51 -69.97, -11.23 118.82 6.31 71
4 08/31/2022 01:22:23 69.83, 156.19 61.06 08/31/2022 01:22:19 69.80, 156.18 61.03 3.56 4
5 08/31/2022 02:13:03 -69.63, -36.20 119.14 08/31/2022 02:11:50 -69.64, -36.41 119.12 7.98 73
6 09/02/2022 16:48:34 -69.91, 104.53 117.91 09/02/2022 16:49:16 -69.88, 104.52 117.94 3.35 42
7 09/02/2022 17:39:18 69.80, -87.99 61.99 09/02/2022 17:38:42 69.81, -87.92 62.01 3.36 36
8 09/05/2022 08:14:55 70.34, 52.31 63.51 09/05/2022 08:16:06 70.21, 53.23 63.36 37.37 71
9 09/05/2022 09:05:30 -69.87,-139.65 116.96 09/05/2022 09:05:40 -69.89,-139.59 116.95 3.03 10
10 09/05/2022 09:56:14 69.76, 27.82 62.94 09/05/2022 09:55:07 69.77, 27.89 62.95 2.65 67
11 09/08/2022 00:31:44 69.94, 168.69 64.10 09/08/2022 00:32:35 69.94, 168.72 64.08 1.32 51
12 09/08/2022 01:22:26 -69.84, -23.84 116.00 09/08/2022 01:22:05 -69.84, -23.79 116.00 2.13 21
13 09/08/2022 02:12:53 68.83, 144.91 62.98 09/08/2022 02:11:47 68.88, 142.60 63.08 92.68 66



Historial Predications of SNOs between NPP and TERRA
